Date,TemperatureHighF,TemperatureAvgF,TemperatureLowF,DewpointHighF,DewpointAvgF,DewpointLowF,HumidityHigh,HumidityAvg,HumidityLow,PressureMaxIn,PressureMinIn,WindSpeedMaxMPH,WindSpeedAvgMPH,GustSpeedMaxMPH,PrecipitationSumIn
2013-1-1,67,56,47,60,51,44,97,83,70,29.76,29.51,8,1,11,0.00
2013-1-2,64,55,47,57,47,38,97,76,39,29.73,29.51,11,4,16,0.00
2013-1-3,47,44,38,42,39,32,92,82,71,29.90,29.70,8,2,11,0.00
2013-1-4,56,43,33,38,30,24,88,65,31,29.98,29.87,9,3,11,0.00
2013-1-5,54,44,32,38,28,24,79,54,34,29.99,29.86,9,2,9,0.00
2013-1-6,55,49,44,45,41,37,86,73,59,29.86,29.73,7,2,11,0.00
2013-1-7,56,46,38,38,35,33,88,68,44,29.97,29.84,11,3,14,0.00
2013-1-8,59,51,44,49,42,35,75,71,66,29.97,29.86,9,4,13,0.00
2013-1-9,67,58,49,59,52,44,89,81,75,30.00,29.90,8,3,11,0.00
2013-1-10,69,63,58,64,60,56,96,91,82,30.00,29.84,10,3,16,0.00
2013-1-11,73,67,63,65,63,61,97,87,74,29.85,29.72,15,4,18,0.00
2013-1-12,77,67,60,63,60,58,95,79,56,29.78,29.66,16,2,21,0.00
2013-1-13,76,67,60,64,61,58,95,82,65,29.72,29.64,17,3,21,0.00
2013-1-14,76,70,65,66,63,60,95,81,63,29.74,29.64,17,6,22,0.00
2013-1-15,75,67,58,64,61,57,96,82,67,29.70,29.58,20,4,22,0.00
2013-1-16,73,68,64,67,64,60,97,90,76,29.60,29.51,24,4,24,0.00
2013-1-17,65,56,41,64,53,34,98,92,76,29.82,29.41,31,6,34,0.00
2013-1-18,56,46,36,40,34,28,92,68,34,30.08,29.82,13,3,13,0.00
2013-1-19,43,41,40,32,30,29,66,64,62,30.06,30.02,8,1,8,0.00
2013-1-20,65,52,39,42,39,36,92,66,34,29.83,29.68,6,1,12,0.00
2013-1-21,64,50,37,40,37,27,90,63,38,29.75,29.64,10,2,17,0.00
2013-1-22,51,43,35,27,22,17,56,43,31,29.91,29.75,22,3,22,0.00
2013-1-23,57,45,33,41,29,20,73,55,39,30.00,29.80,17,3,17,0.00
2013-1-24,65,54,44,47,38,16,81,57,28,29.94,29.74,21,6,21,0.00
2013-1-25,50,43,35,40,28,17,75,55,37,30.00,29.73,17,3,17,0.00
2013-1-26,59,50,44,43,38,31,85,65,41,29.87,29.72,9,2,9,0.00
2013-1-27,59,49,43,40,35,30,81,59,44,30.03,29.86,14,4,14,0.00
2013-1-28,64,53,47,53,44,33,87,70,56,30.01,29.85,13,2,13,0.00
2013-1-29,76,63,50,64,56,48,97,79,62,29.86,29.61,17,2,17,0.00
2013-1-30,73,66,51,67,60,46,92,84,74,29.61,29.12,31,9,41,0.00
2013-1-31,51,43,38,46,32,28,83,67,58,29.68,29.41,29,8,29,0.00
2013-2-1,49,44,35,32,20,10,63,42,21,29.96,29.77,12,5,22,0.00
2013-2-2,58,43,28,40,22,13,79,46,23,29.96,29.70,15,2,15,0.00
2013-2-3,62,51,40,41,34,28,85,55,29,29.75,29.58,31,5,31,0.00
2013-2-4,54,46,39,35,30,28,72,55,38,29.74,29.61,10,1,10,0.00
2013-2-5,69,54,39,52,43,34,85,68,44,29.65,29.55,22,2,22,0.00
2013-2-6,72,57,49,51,45,31,93,70,23,29.77,29.63,10,1,10,0.00
2013-2-7,75,50,0,51,45,0,95,84,44,29.72,29.44,23,4,23,0.01
2013-2-8,71,53,46,49,46,39,95,77,42,29.73,29.52,18,3,18,0.16
2013-2-9,64,49,35,39,32,28,86,56,27,29.90,29.72,11,3,11,0.00
2013-2-10,68,56,44,56,42,26,95,60,42,29.92,29.65,24,6,24,0.81
2013-2-11,65,59,54,63,58,53,98,95,85,29.74,29.65,19,3,19,1.91
2013-2-12,57,52,48,54,49,43,98,89,61,29.72,29.42,16,3,16,1.70
2013-2-13,59,51,45,54,47,38,99,88,68,29.55,29.33,23,5,23,0.27
2013-2-14,54,45,37,40,37,34,90,75,54,29.72,29.55,12,2,12,0.00
2013-2-15,65,50,35,41,35,29,95,63,27,29.72,29.57,17,2,17,0.00
2013-2-16,48,43,35,38,24,8,80,51,21,29.76,29.53,28,6,28,0.00
2013-2-17,49,38,27,25,13,1,70,40,16,29.90,29.75,19,4,19,0.00
2013-2-18,58,44,30,29,24,20,86,51,26,29.98,29.77,20,4,20,0.00
2013-2-19,63,50,42,51,37,19,95,65,29,29.77,29.59,19,5,19,0.28
2013-2-20,59,47,35,20,15,8,52,30,15,29.81,29.66,16,4,16,0.00
2013-2-21,69,53,36,30,23,12,52,32,18,29.77,29.57,13,3,13,0.00
2013-2-22,59,47,42,46,42,27,97,86,30,29.74,29.61,21,6,21,1.14
2013-2-23,47,44,41,47,44,40,99,97,96,29.64,29.42,16,3,16,0.92
2013-2-24,70,55,44,47,41,32,99,67,25,29.63,29.52,13,2,13,0.00
2013-2-25,52,48,42,46,41,33,95,78,49,29.62,29.47,25,6,25,0.52
2013-2-26,69,52,42,57,44,35,98,77,38,29.48,29.15,28,7,28,1.13
2013-2-27,64,51,40,38,35,31,81,57,31,29.53,29.41,19,5,19,0.00
2013-2-28,56,48,41,38,31,26,71,53,38,29.59,29.46,19,6,22,0.00
2013-3-1,51,42,35,28,27,26,70,55,40,29.62,29.51,17,4,17,0.00
2013-3-2,43,39,34,30,27,24,80,62,51,29.63,29.55,20,6,20,0.00
2013-3-3,44,37,32,27,21,18,79,54,35,29.69,29.59,19,5,19,0.00
2013-3-4,61,46,31,31,22,16,65,41,23,29.81,29.64,14,3,14,0.00
2013-3-5,70,56,42,59,45,29,86,66,43,29.67,29.29,30,8,30,0.16
2013-3-6,47,41,36,30,25,17,72,53,43,29.76,29.53,36,8,36,0.00
2013-3-7,62,46,31,31,29,25,83,54,28,29.86,29.74,13,3,13,0.00
2013-3-8,65,50,37,36,30,25,76,48,24,29.90,29.77,15,3,15,0.00
2013-3-9,67,54,39,36,30,26,78,44,23,29.92,29.79,14,3,14,0.00
2013-3-10,73,61,49,51,40,32,72,48,29,29.81,29.67,17,5,17,0.00
2013-3-11,69,61,54,59,53,50,97,77,58,29.70,29.40,31,8,31,0.51
2013-3-12,66,55,42,59,39,28,97,62,25,29.68,29.39,21,6,21,0.10
2013-3-13,61,52,42,34,26,15,73,41,17,29.82,29.68,28,6,28,0.00
2013-3-14,58,46,34,22,18,13,54,35,17,29.97,29.80,26,4,26,0.00
2013-3-15,74,57,38,40,31,16,75,39,25,29.85,29.61,21,4,21,0.00
2013-3-16,77,64,51,46,40,35,69,44,22,29.67,29.50,25,7,25,0.00
2013-3-17,71,64,54,59,52,47,92,68,49,29.65,29.53,18,5,18,0.00
2013-3-18,75,61,55,62,57,51,97,87,63,29.62,29.36,37,6,37,0.97
2013-3-19,73,60,51,55,39,15,97,58,12,29.65,29.45,20,5,24,0.00
2013-3-20,61,53,43,31,25,19,60,35,21,29.73,29.50,17,4,17,0.00
2013-3-21,55,47,38,30,19,5,70,36,14,29.58,29.48,21,5,21,0.00
2013-3-22,53,46,39,40,30,16,77,54,31,29.68,29.55,13,2,13,0.04
2013-3-23,63,54,46,54,46,39,93,77,66,29.68,29.39,19,4,19,0.42
2013-3-24,59,53,50,54,50,39,97,89,53,29.41,29.14,32,6,32,1.16
2013-3-25,53,46,40,40,24,16,62,44,25,29.67,29.28,30,9,30,0.00
2013-3-26,46,39,33,26,23,19,70,52,39,29.87,29.67,24,7,24,0.00
2013-3-27,58,45,32,26,23,19,71,44,23,29.94,29.81,18,4,18,0.00
2013-3-28,65,52,37,30,26,20,74,40,18,29.94,29.80,18,4,21,0.00
2013-3-29,71,56,39,40,32,26,76,44,24,29.94,29.76,15,2,15,0.00
2013-3-30,76,65,56,50,43,36,55,45,32,29.78,29.62,19,5,19,0.00
2013-3-31,76,67,60,61,54,49,78,64,44,29.64,29.45,23,7,23,0.02
2013-4-1,76,66,59,60,51,36,96,64,25,29.60,29.47,17,4,17,0.63
2013-4-2,75,63,51,44,41,37,76,47,27,29.76,29.60,14,4,14,0.00
2013-4-3,64,56,50,51,38,29,87,53,32,29.76,29.66,18,5,18,0.12
2013-4-4,51,46,43,47,44,41,95,93,88,29.74,29.56,31,8,31,0.93
2013-4-5,62,49,40,48,42,39,97,80,54,29.65,29.52,19,4,19,0.00
2013-4-6,74,58,42,49,41,36,96,61,25,29.78,29.65,16,2,16,0.00
2013-4-7,77,64,49,54,48,40,89,58,34,29.81,29.67,18,3,18,0.00
2013-4-8,81,69,57,57,54,51,87,63,38,29.76,29.65,20,4,20,0.00
2013-4-9,84,72,60,61,57,54,88,62,37,29.78,29.68,18,4,19,0.00
2013-4-10,85,73,62,60,58,52,91,63,34,29.73,29.54,16,4,16,0.00
2013-4-11,81,71,63,70,65,57,92,80,62,29.57,29.29,25,7,25,0.25
2013-4-12,76,69,61,69,55,39,94,65,27,29.53,29.29,30,6,36,0.62
2013-4-13,79,65,50,49,40,32,81,45,19,29.62,29.53,20,4,20,0.00
2013-4-14,62,59,54,58,52,43,94,79,56,29.67,29.38,30,4,30,0.46
2013-4-15,80,67,58,62,59,56,97,78,52,29.73,29.50,16,2,16,0.00
2013-4-16,83,72,62,63,61,59,94,72,45,29.83,29.72,11,3,15,0.00
2013-4-17,84,74,63,62,61,58,89,66,44,29.81,29.68,13,3,13,0.00
2013-4-18,84,73,63,66,61,55,94,69,38,29.69,29.53,22,6,22,0.00
2013-4-19,76,65,50,69,60,47,95,86,77,29.66,29.44,27,7,27,0.68
2013-4-20,66,54,42,47,36,28,90,56,28,29.81,29.64,17,4,17,0.00
2013-4-21,70,58,44,46,40,35,88,55,29,29.90,29.80,21,6,28,0.00
2013-4-22,71,61,54,48,44,37,67,53,41,29.87,29.72,25,8,25,0.00
2013-4-23,76,63,50,54,45,38,73,52,38,29.82,29.67,13,3,13,0.00
2013-4-24,78,67,55,60,56,52,93,70,47,29.76,29.64,20,4,20,0.00
2013-4-25,77,68,57,61,45,22,86,51,14,29.86,29.68,18,4,18,0.00
2013-4-26,80,64,46,51,42,31,69,46,30,29.94,29.84,18,5,18,0.00
2013-4-27,79,68,58,54,50,45,75,53,31,29.90,29.73,23,6,23,0.00
2013-4-28,81,67,61,66,59,54,96,76,49,29.75,29.54,30,6,30,1.13
2013-4-29,74,64,60,64,61,58,98,91,67,29.65,29.52,12,2,12,0.58
2013-4-30,82,69,60,65,60,53,97,75,38,29.67,29.55,14,2,14,0.00
2013-5-1,70,66,62,61,59,56,94,80,64,29.76,29.65,24,7,24,0.00
2013-5-2,72,66,61,62,60,57,90,82,68,29.74,29.66,26,10,26,0.02
2013-5-3,70,65,62,60,58,56,90,79,65,29.67,29.53,28,10,28,0.06
2013-5-4,61,58,54,59,55,50,97,91,75,29.54,29.39,26,7,26,1.84
2013-5-5,72,60,52,59,53,46,98,79,41,29.45,29.35,17,4,17,0.58
2013-5-6,63,54,45,52,47,43,94,77,54,29.56,29.45,15,4,15,0.00
2013-5-7,67,59,52,53,50,48,91,75,53,29.60,29.47,10,4,14,0.00
2013-5-8,78,63,53,56,52,50,88,70,38,29.67,29.57,16,3,16,0.00
2013-5-9,84,72,58,61,57,54,92,62,37,29.72,29.63,8,2,17,0.00
2013-5-10,82,72,61,62,59,56,93,66,41,29.70,29.56,12,4,22,0.00
2013-5-11,78,71,65,65,62,59,87,74,61,29.60,29.49,10,5,18,0.00
2013-5-12,76,68,60,65,51,37,90,57,28,29.67,29.51,11,5,21,0.00
2013-5-13,72,62,51,40,35,26,64,39,19,29.81,29.66,18,5,18,0.00
2013-5-14,80,66,52,56,45,37,74,48,31,29.87,29.73,12,3,12,0.00
2013-5-15,88,74,58,59,56,52,86,55,31,29.79,29.61,16,4,16,0.00
2013-5-16,85,75,68,61,54,45,70,49,26,29.69,29.59,15,4,15,0.00
2013-5-17,85,75,64,64,61,56,84,62,44,29.72,29.61,15,3,15,0.00
2013-5-18,76,71,67,67,65,63,95,82,67,29.72,29.62,12,3,12,0.20
2013-5-19,76,70,67,69,67,64,96,88,74,29.71,29.57,20,3,20,0.06
2013-5-20,85,74,66,72,69,65,97,84,65,29.70,29.59,8,2,8,0.00
2013-5-21,89,78,68,72,68,64,96,74,46,29.65,29.50,26,3,39,0.00
2013-5-22,86,74,65,71,67,64,98,79,58,29.60,29.47,34,4,34,2.52
2013-5-23,86,75,66,70,64,58,98,72,41,29.58,29.50,19,4,19,0.24
2013-5-24,81,73,65,62,53,44,72,51,28,29.78,29.55,23,7,23,0.00
2013-5-25,80,68,55,58,47,41,74,49,26,29.91,29.77,15,4,15,0.00
2013-5-26,86,73,57,61,55,49,90,59,29,29.86,29.73,11,2,11,0.00
2013-5-27,86,76,64,65,61,56,83,62,39,29.81,29.70,12,3,12,0.00
2013-5-28,85,76,66,64,61,56,88,63,39,29.81,29.70,16,5,16,0.00
2013-5-29,86,76,66,67,64,60,88,68,45,29.81,29.70,18,4,18,0.00
2013-5-30,86,78,69,70,66,63,92,71,48,29.83,29.68,16,5,16,0.00
2013-5-31,89,79,71,69,66,62,91,67,41,29.79,29.65,16,5,16,0.00
2013-6-1,88,79,71,69,67,64,91,68,46,29.70,29.57,17,6,17,0.00
2013-6-2,83,74,69,74,69,66,97,85,70,29.65,29.47,23,5,23,2.14
2013-6-3,84,74,69,73,70,67,98,88,62,29.57,29.46,21,3,21,0.25
2013-6-4,88,79,72,74,72,70,97,80,59,29.60,29.51,16,3,16,0.00
2013-6-5,87,76,71,75,71,70,96,87,61,29.62,29.50,17,3,17,0.95
2013-6-6,74,72,70,72,70,68,97,94,87,29.52,29.32,18,3,21,1.55
2013-6-7,87,75,69,72,69,66,97,83,54,29.47,29.25,27,5,30,0.05
2013-6-8,85,75,67,71,67,65,95,78,55,29.68,29.47,10,3,10,0.00
2013-6-9,82,77,73,75,72,70,95,85,72,29.70,29.59,28,4,28,0.16
2013-6-10,81,74,71,75,71,69,97,92,76,29.67,29.57,22,4,22,0.77
2013-6-11,91,81,71,75,72,69,98,77,49,29.67,29.55,14,4,14,0.00
2013-6-12,94,85,76,77,74,71,89,70,50,29.65,29.56,15,3,15,0.00
2013-6-13,93,85,72,77,72,66,87,67,45,29.58,29.38,19,6,21,0.09
2013-6-14,88,78,70,70,66,61,93,68,44,29.58,29.41,17,4,17,0.00
2013-6-15,87,79,70,67,61,56,79,56,38,29.70,29.58,15,3,15,0.00
2013-6-16,88,79,70,70,67,63,90,69,49,29.75,29.60,14,4,14,0.00
2013-6-17,91,80,71,73,70,68,97,73,50,29.66,29.52,29,5,29,1.11
2013-6-18,83,76,71,76,73,70,96,88,74,29.58,29.46,18,5,18,0.08
2013-6-19,82,75,72,72,71,70,93,88,71,29.59,29.50,13,4,13,0.00
2013-6-20,85,76,70,70,68,64,97,79,52,29.74,29.64,20,6,20,0.00
2013-6-24,89,79,72,74,70,65,95,75,56,30.22,30.11,26,3,26,0.15
2013-6-25,89,74,70,74,70,68,97,90,56,30.22,30.05,24,2,24,0.88
2013-6-26,91,80,71,77,73,70,96,80,52,30.11,29.95,13,3,13,0.03
2013-6-27,90,80,74,76,72,66,91,78,55,29.98,29.82,27,5,27,0.13
2013-6-28,92,78,72,77,72,67,95,84,56,29.90,29.69,24,5,24,0.21
2013-6-29,86,77,71,74,71,68,94,83,65,29.76,29.67,18,5,18,0.21
2013-6-30,83,75,69,75,71,67,97,87,73,29.82,29.69,13,4,13,0.74
2013-7-1,84,76,70,75,71,68,98,86,66,29.95,29.79,22,4,22,0.31
2013-7-2,84,75,70,74,72,68,97,90,67,30.10,29.94,11,4,13,0.84
2013-7-3,81,74,72,74,72,70,97,92,77,30.17,30.07,22,4,24,1.17
2013-7-4,81,74,71,76,72,69,98,93,81,30.17,30.09,29,5,29,0.24
2013-7-5,87,76,71,75,72,70,97,88,63,30.20,30.09,20,3,24,1.08
2013-7-6,88,78,71,75,72,70,98,84,58,30.17,30.06,18,5,18,1.10
2013-7-7,88,78,72,76,73,70,96,84,57,30.18,30.07,13,3,13,0.50
2013-7-8,91,80,72,75,72,70,97,80,54,30.20,30.09,15,2,15,0.50
2013-7-9,91,80,73,76,73,70,95,79,53,30.19,30.06,17,3,17,0.02
2013-7-10,85,78,74,76,74,71,97,87,72,30.12,29.96,18,3,18,0.04
2013-7-11,88,77,73,75,73,72,98,88,63,30.00,29.88,13,3,13,0.04
2013-7-12,88,78,73,75,73,71,98,86,62,29.97,29.83,16,3,26,1.28
2013-7-13,80,75,71,74,72,68,96,90,80,30.04,29.90,21,5,21,0.02
2013-7-14,84,77,73,76,73,71,96,88,71,30.18,30.02,22,5,22,0.15
2013-7-15,86,77,73,74,72,68,96,86,65,30.25,30.17,24,5,26,0.15
2013-7-16,89,80,73,74,73,70,96,79,55,30.30,30.21,16,4,16,0.00
2013-7-17,92,81,71,75,72,68,96,76,50,30.27,30.10,32,3,32,0.60
2013-7-18,79,72,70,72,70,69,97,92,80,30.23,30.12,11,3,11,0.66
2013-7-19,91,84,77,76,73,68,90,70,47,30.18,29.99,16,4,16,0.00
2013-7-20,87,79,74,75,73,70,94,82,58,30.07,29.95,15,5,15,0.00
2013-7-21,87,78,74,76,73,71,95,85,68,30.06,29.96,18,4,18,0.00
2013-7-22,85,77,73,76,72,70,95,87,70,30.05,29.94,28,5,28,0.53
2013-7-23,88,78,72,75,72,69,95,83,57,30.00,29.84,23,4,23,0.03
2013-7-24,77,72,70,72,70,69,96,94,86,29.88,29.83,11,3,11,0.04
2013-7-25,91,86,76,75,72,67,86,66,46,29.98,29.81,9,4,13,0.00
2013-7-26,81,77,74,74,72,70,93,86,78,30.05,29.96,8,2,8,0.00
2013-7-27,89,80,73,74,73,70,95,80,57,30.04,29.95,9,4,17,0.00
2013-7-28,86,79,72,74,72,67,96,78,59,30.00,29.91,9,2,15,0.00
2013-7-29,91,86,77,74,71,68,85,61,51,30.14,29.95,13,4,15,0.00
2013-7-30,92,81,69,72,65,55,90,62,32,30.19,30.09,10,3,12,0.00
2013-7-31,92,83,71,73,66,55,96,60,32,30.17,30.07,10,3,12,0.51
2013-8-1,89,79,71,77,73,70,96,83,56,30.12,29.89,9,3,12,0.51
2013-8-2,92,82,74,76,72,66,97,74,43,30.02,29.91,9,2,10,0.00
2013-8-3,90,83,75,76,73,69,94,73,52,30.05,29.98,11,2,15,0.00
2013-8-4,90,83,77,76,74,72,90,75,58,30.02,29.92,10,4,14,0.00
2013-8-5,90,82,73,77,73,69,90,76,57,30.02,29.94,11,3,14,0.00
2013-8-6,90,81,76,77,74,70,94,80,52,30.02,29.94,10,3,12,0.00
2013-8-7,88,79,75,76,74,71,97,87,63,30.05,29.97,11,4,14,1.58
2013-8-8,90,82,74,76,73,71,94,76,54,30.06,29.98,11,3,13,1.58
2013-8-9,92,83,74,76,74,72,93,76,54,30.10,30.00,10,4,14,0.00
2013-8-10,93,83,75,78,74,70,94,76,49,30.13,30.05,15,3,18,0.05
2013-8-11,91,84,75,76,74,71,93,72,54,30.17,30.06,11,3,14,0.05
2013-8-12,94,85,78,76,74,70,89,70,46,30.11,29.98,14,3,15,0.00
2013-8-13,92,82,75,75,73,71,92,76,55,30.02,29.88,13,4,16,0.00
2013-8-14,82,77,75,75,73,72,93,89,77,29.95,29.89,8,3,9,0.00
2013-8-15,86,73,65,75,69,63,98,88,64,30.08,29.89,18,6,23,0.63
2013-8-16,69,67,64,66,65,63,97,95,90,30.10,30.01,15,6,19,0.01
2013-8-17,71,67,64,70,66,63,99,97,96,30.15,30.07,12,4,15,0.73
2013-8-18,85,74,70,77,72,70,99,93,73,30.18,30.07,15,2,20,1.06
2013-8-19,86,77,71,76,73,71,99,91,69,30.13,30.02,18,4,19,0.58
2013-8-20,84,77,72,76,74,69,97,90,73,30.18,30.06,13,4,18,0.25
2013-8-21,89,78,70,76,72,70,99,84,60,30.21,30.10,10,3,14,0.33
2013-8-22,92,80,72,74,72,69,96,78,52,30.17,30.02,13,3,21,0.00
2013-8-23,91,78,72,75,72,68,96,82,53,30.08,29.96,27,4,29,2.85
2013-8-24,80,75,70,72,70,68,97,85,75,30.23,30.01,14,5,17,2.85
2013-8-25,83,75,68,69,64,59,94,71,45,30.33,30.22,16,6,21,0.00
2013-8-26,82,72,63,66,61,54,88,70,44,30.29,30.15,12,3,17,0.00
2013-8-27,87,76,65,71,65,61,94,70,44,30.17,30.03,9,2,12,0.00
2013-8-28,91,80,68,72,69,66,94,73,45,30.06,29.97,8,2,11,0.00
2013-8-29,93,83,73,77,73,70,91,74,55,30.01,29.90,12,4,15,0.00
2013-8-30,88,81,76,78,76,74,94,84,70,29.99,29.91,15,4,17,0.00
2013-8-31,88,78,74,78,74,73,98,90,71,29.99,29.91,15,2,17,0.00
2013-9-1,91,81,73,76,74,69,97,79,58,29.94,29.85,13,3,16,0.00
2013-9-2,89,80,72,76,72,70,95,78,56,29.96,29.87,8,3,11,0.00
2013-9-3,86,78,76,75,73,72,92,86,69,29.96,29.89,8,3,10,0.00
2013-9-4,90,85,76,76,73,69,90,70,56,30.08,29.87,14,4,19,0.09
2013-9-5,92,82,74,75,73,67,96,75,46,30.11,30.02,9,2,14,0.00
2013-9-6,89,80,72,73,71,68,95,75,52,30.12,30.02,13,5,17,0.00
2013-9-7,88,79,69,71,67,63,88,70,43,30.10,29.99,10,3,12,0.00
2013-9-8,91,80,69,72,69,67,93,71,48,30.02,29.92,10,2,12,0.00
2013-9-9,90,82,73,72,70,67,90,70,47,30.10,29.97,12,4,15,0.00
2013-9-10,88,80,73,72,70,66,91,72,51,30.21,30.10,15,4,17,0.00
2013-9-11,89,79,69,72,68,62,94,70,40,30.22,30.08,14,3,16,0.00
2013-9-12,90,80,69,72,68,62,93,70,44,30.10,29.90,10,2,12,0.00
2013-9-13,90,85,74,72,67,62,79,57,44,30.06,29.77,11,4,15,0.00
2013-9-14,85,73,63,65,60,56,86,65,43,30.05,29.86,11,5,17,0.00
2013-9-15,88,77,69,73,69,63,88,76,56,30.15,30.05,13,4,18,0.00
2013-9-16,90,81,73,75,72,68,94,76,50,30.12,30.01,11,3,14,0.00
2013-9-17,80,75,70,72,69,64,97,81,67,30.19,30.06,16,5,19,0.00
2013-9-18,78,73,68,65,63,60,80,72,59,30.23,30.12,14,6,18,0.00
2013-9-19,84,74,63,66,61,59,88,67,45,30.19,30.08,9,3,18,0.00
2013-9-20,86,76,66,70,66,62,89,73,50,30.09,29.92,11,2,14,0.00
2013-9-21,82,73,68,73,69,67,97,89,68,29.94,29.74,17,5,24,0.88
2013-9-22,81,72,65,69,64,61,96,79,51,29.87,29.74,15,4,17,0.88
2013-9-23,79,71,64,67,63,58,90,77,57,30.02,29.86,13,4,16,0.00
2013-9-24,74,69,66,67,65,63,96,88,72,30.03,29.88,11,4,17,0.13
2013-9-25,71,69,66,69,67,64,96,94,89,29.88,29.80,14,4,16,0.18
2013-9-26,72,66,64,64,64,63,97,92,74,29.97,29.86,10,5,15,0.18
2013-9-27,78,73,66,65,60,54,87,66,43,30.12,29.92,16,6,23,0.00
2013-9-28,66,63,59,57,56,55,86,78,72,30.16,30.11,8,4,11,0.00
2013-9-29,76,67,58,59,56,53,88,70,47,30.20,30.10,13,6,22,0.00
2013-9-30,77,68,60,62,58,55,90,72,48,30.13,30.02,10,3,14,0.00
2013-10-1,82,70,59,63,60,57,94,71,45,30.17,30.05,8,2,11,0.00
2013-10-2,83,72,60,65,61,58,94,71,45,30.17,30.07,10,2,10,0.00
2013-10-3,84,74,63,66,62,56,93,69,45,30.15,30.06,9,2,14,0.00
2013-10-4,86,75,64,68,64,61,91,71,47,30.17,30.07,9,2,10,0.00
2013-10-5,86,75,65,69,66,62,93,74,47,30.14,30.02,10,2,13,0.00
2013-10-6,85,75,65,72,68,63,96,81,62,30.04,29.86,15,3,16,0.24
2013-10-7,76,72,64,72,68,58,98,89,74,29.93,29.82,10,3,15,0.27
2013-10-8,71,65,59,60,58,56,90,77,67,30.15,29.91,20,8,23,0.00
2013-10-9,77,66,58,57,55,53,91,70,48,30.19,30.09,15,6,22,0.00
2013-10-10,81,68,56,61,56,52,88,69,46,30.15,30.00,13,3,16,0.00
2013-10-11,82,75,61,60,58,54,91,57,40,30.12,29.95,20,4,20,0.00
2013-10-12,83,70,57,61,58,55,92,68,38,30.08,29.99,11,2,13,0.00
2013-10-13,83,71,60,65,62,58,92,73,48,30.17,30.07,14,4,17,0.00
2013-10-14,71,67,62,64,63,61,94,85,77,30.19,30.11,15,5,16,0.00
2013-10-15,71,67,65,63,62,60,89,83,71,30.14,30.04,11,6,15,0.00
2013-10-16,81,73,64,63,61,57,88,67,48,30.08,29.95,8,3,12,0.00
2013-10-17,82,73,62,69,63,57,93,74,48,30.06,29.89,12,2,14,0.00
2013-10-18,77,70,63,68,62,57,91,78,62,30.03,29.92,12,4,14,0.00
2013-10-19,70,65,62,59,57,54,86,74,58,30.00,29.92,14,3,14,0.00
2013-10-20,75,63,53,56,53,49,94,71,44,30.08,29.98,10,3,12,0.00
2013-10-21,72,64,55,62,57,50,89,80,68,30.13,30.02,8,2,9,0.00
2013-10-22,73,66,62,64,61,59,93,86,68,30.05,29.86,7,2,7,0.00
2013-10-23,69,61,51,61,45,32,91,60,25,30.11,29.86,26,5,26,0.00
2013-10-24,70,56,43,45,39,33,83,57,29,30.25,30.10,14,3,14,0.00
2013-10-25,60,52,46,44,36,26,80,57,28,30.37,30.19,18,5,18,0.00
2013-10-26,65,51,37,45,36,32,86,61,32,30.36,30.18,9,2,9,0.00
2013-10-27,74,58,43,57,48,40,90,71,47,30.20,30.11,11,1,11,0.00
2013-10-28,71,63,58,59,57,54,89,80,63,30.28,30.14,10,2,10,0.00
2013-10-29,78,66,58,59,57,55,93,75,45,30.36,30.23,11,2,11,0.00
2013-10-30,79,68,57,60,57,54,92,70,45,30.33,30.17,9,2,11,0.00
2013-10-31,79,67,59,66,59,55,87,76,50,30.30,29.94,16,4,22,0.00
2013-11-1,73,68,64,70,65,60,97,91,67,29.95,29.75,18,5,20,0.52
2013-11-2,72,62,52,62,49,42,97,66,40,30.05,29.82,13,4,23,0.53
2013-11-3,66,55,45,45,42,38,86,62,38,30.32,30.05,17,4,17,0.00
2013-11-4,65,55,45,42,40,36,79,57,38,30.44,30.31,25,6,25,0.00
2013-11-5,51,48,44,37,36,36,74,65,58,30.47,30.41,19,6,19,0.00
2013-11-6,67,60,56,58,50,40,89,69,44,30.42,30.27,12,6,18,0.00
2013-11-7,75,65,58,63,59,56,96,82,58,30.26,30.05,6,2,11,0.02
2013-11-8,72,57,44,63,41,30,91,57,31,30.34,30.03,11,4,20,0.00
2013-11-9,67,54,42,46,40,32,80,59,38,30.36,30.25,12,2,12,0.00
2013-11-10,70,59,52,48,45,41,78,61,40,30.31,30.19,8,2,9,0.01
2013-11-11,68,57,48,45,41,36,79,58,36,30.31,30.19,16,3,16,0.00
2013-11-12,70,53,38,46,39,22,91,62,36,30.42,30.11,29,6,29,0.00
2013-11-13,50,40,30,26,18,10,63,43,21,30.60,30.42,24,6,24,0.00
2013-11-14,61,45,29,32,24,13,81,47,19,30.54,30.32,13,2,13,0.00
2013-11-15,60,54,46,52,45,32,92,74,52,30.34,30.15,9,2,9,0.00
2013-11-16,67,59,53,60,56,51,98,90,78,30.25,30.14,9,3,11,0.00
2013-11-17,69,66,63,68,64,60,98,92,85,30.17,29.95,15,4,15,0.00
2013-11-18,82,71,57,70,55,34,98,62,31,30.01,29.90,24,5,24,0.01
2013-11-19,62,52,45,37,35,32,69,54,35,30.14,30.00,18,6,18,0.00